| time (UTC) | temp F | wind direction | speed MPH | gust MPH | rain 1hr in | rain 24hr in | rain mn in | humidity % | barometer mb |
| 20260906233750 | 70 | 269 | 3.0 | 6.0 | 0.00 | 0.00 | 0.00 | 54 | 1030.6 |
| 20260906233244 | 70 | 33 | 4.0 | 7.0 | 0.00 | 0.00 | 0.00 | 53 | 1030.7 |
| 20260906232739 | 71 | 9 | 4.0 | 6.0 | 0.00 | 0.00 | 0.00 | 52 | 1030.7 |
| 20260906232234 | 70 | 286 | 2.0 | 4.0 | 0.00 | 0.00 | 0.00 | 52 | 1030.8 |
| 20260906231729 | 70 | 280 | 2.0 | 4.0 | 0.00 | 0.00 | 0.00 | 53 | 1030.6 |
| 20260906231224 | 70 | 269 | 3.0 | 4.0 | 0.00 | 0.00 | 0.00 | 53 | 1030.8 |
| 20260906230723 | 69 | 326 | 5.0 | 9.0 | 0.00 | 0.00 | 0.00 | 54 | 1030.6 |
| 20260906230218 | 69 | 353 | 2.0 | 4.0 | 0.00 | 0.00 | 0.00 | 54 | 1030.6 |
| 20260906225717 | 69 | 272 | 2.0 | 6.0 | 0.00 | 0.00 | 0.00 | 55 | 1030.7 |
| 20260906225213 | 70 | 311 | 2.0 | 3.0 | 0.00 | 0.00 | 0.00 | 54 | 1030.6 |
| 20260906224708 | 69 | 329 | 3.0 | 4.0 | 0.00 | 0.00 | 0.00 | 54 | 1030.7 |
| 20260906224204 | 69 | 36 | 3.0 | 8.0 | 0.00 | 0.00 | 0.00 | 55 | 1030.8 |
| 20260906223700 | 70 | 354 | 3.0 | 6.0 | 0.00 | 0.00 | 0.00 | 53 | 1030.7 |
| 20260906223154 | 70 | 275 | 4.0 | 8.0 | 0.00 | 0.00 | 0.00 | 53 | 1030.7 |
| 20260906222652 | 70 | 351 | 2.0 | 6.0 | 0.00 | 0.00 | 0.00 | 53 | 1030.8 |
| 20260906222151 | 70 | 307 | 5.0 | 8.0 | 0.00 | 0.00 | 0.00 | 53 | 1030.8 |
| 20260906221649 | 69 | 26 | 2.0 | 4.0 | 0.00 | 0.00 | 0.00 | 55 | 1031.0 |
| 20260906221144 | 69 | 9 | 6.0 | 9.0 | 0.00 | 0.00 | 0.00 | 55 | 1031.0 |
| 20260906220640 | 69 | 268 | 0.0 | 4.0 | 0.00 | 0.00 | 0.00 | 54 | 1030.7 |
| 20260906220135 | 69 | 3 | 1.0 | 6.0 | 0.00 | 0.00 | 0.00 | 54 | 1031.0 |
| 20260906215634 | 68 | 325 | 1.0 | 6.0 | 0.00 | 0.00 | 0.00 | 55 | 1031.2 |
| 20260906215133 | 68 | 284 | 2.0 | 2.0 | 0.00 | 0.00 | 0.00 | 55 | 1031.1 |
| 20260906214632 | 68 | 344 | 2.0 | 4.0 | 0.00 | 0.00 | 0.00 | 54 | 1031.4 |
| 20260906214126 | 69 | 109 | 5.0 | 7.0 | 0.00 | 0.00 | 0.00 | 54 | 1031.2 |
| 20260906213625 | 69 | 287 | 1.0 | 2.0 | 0.00 | 0.00 | 0.00 | 53 | 1031.5 |
| 20260906213120 | 69 | 94 | 6.0 | 8.0 | 0.00 | 0.00 | 0.00 | 52 | 1031.5 |
| 20260906212618 | 69 | 250 | 0.0 | 2.0 | 0.00 | 0.00 | 0.00 | 52 | 1031.5 |
| 20260906212114 | 69 | 292 | 2.0 | 2.0 | 0.00 | 0.00 | 0.00 | 52 | 1031.4 |
| 20260906211613 | 69 | 305 | 3.0 | 4.0 | 0.00 | 0.00 | 0.00 | 52 | 1031.4 |
| 20260906211109 | 70 | 351 | 4.0 | 7.0 | 0.00 | 0.00 | 0.00 | 52 | 1031.2 |
| 20260906210604 | 72 | 155 | 4.0 | 9.0 | 0.00 | 0.00 | 0.00 | 49 | 1031.2 |
| 20260906210059 | 72 | 353 | 4.0 | 7.0 | 0.00 | 0.00 | 0.00 | 48 | 1031.4 |
| 20260906205554 | 71 | 315 | 1.0 | 4.0 | 0.00 | 0.00 | 0.00 | 49 | 1031.5 |
| 20260906205050 | 70 | 54 | 4.0 | 9.0 | 0.00 | 0.00 | 0.00 | 49 | 1031.8 |
| 20260906204549 | 70 | 301 | 4.0 | 4.0 | 0.00 | 0.00 | 0.00 | 48 | 1031.5 |
| 20260906204044 | 70 | 54 | 6.0 | 11.0 | 0.00 | 0.00 | 0.00 | 49 | 1031.9 |
| 20260906203543 | 71 | 34 | 2.0 | 9.0 | 0.00 | 0.00 | 0.00 | 48 | 1031.8 |
| 20260906203039 | 71 | 40 | 3.0 | 7.0 | 0.00 | 0.00 | 0.00 | 48 | 1031.6 |
| 20260906202535 | 71 | 34 | 6.0 | 10.0 | 0.00 | 0.00 | 0.00 | 48 | 1031.9 |
| 20260906202030 | 70 | 340 | 4.0 | 6.0 | 0.00 | 0.00 | 0.00 | 50 | 1031.8 |
| 20260906201530 | 70 | 27 | 8.0 | 10.0 | 0.00 | 0.00 | 0.00 | 48 | 1031.6 |
| 20260906201030 | 71 | 71 | 5.0 | 7.0 | 0.00 | 0.00 | 0.00 | 48 | 1031.9 |
| 20260906200526 | 70 | 329 | 3.0 | 8.0 | 0.00 | 0.00 | 0.00 | 49 | 1031.8 |
| 20260906200022 | 70 | 268 | 1.0 | 3.0 | 0.00 | 0.00 | 0.00 | 47 | 1031.8 |
| 20260906195517 | 70 | 120 | 3.0 | 8.0 | 0.00 | 0.00 | 0.00 | 48 | 1032.0 |
| 20260906195014 | 71 | 355 | 2.0 | 9.0 | 0.00 | 0.00 | 0.00 | 46 | 1031.8 |
| 20260906194509 | 71 | 97 | 8.0 | 10.0 | 0.00 | 0.00 | 0.00 | 46 | 1031.9 |
| 20260906194005 | 71 | 22 | 7.0 | 9.0 | 0.00 | 0.00 | 0.00 | 46 | 1032.0 |
| 20260906193504 | 71 | 300 | 2.0 | 8.0 | 0.00 | 0.00 | 0.00 | 47 | 1031.9 |
| 20260906193000 | 71 | 261 | 2.0 | 7.0 | 0.00 | 0.00 | 0.00 | 46 | 1032.0 |
| 20260906192455 | 70 | 314 | 2.0 | 7.0 | 0.00 | 0.00 | 0.00 | 47 | 1032.0 |
| 20260906191954 | 73 | 359 | 5.0 | 7.0 | 0.00 | 0.00 | 0.00 | 43 | 1031.9 |
| 20260906191449 | 72 | 187 | 2.0 | 11.0 | 0.00 | 0.00 | 0.00 | 42 | 1032.1 |
| 20260906190948 | 71 | 48 | 5.0 | 11.0 | 0.00 | 0.00 | 0.00 | 46 | 1032.1 |
| 20260906190447 | 70 | 76 | 2.0 | 4.0 | 0.00 | 0.00 | 0.00 | 46 | 1032.1 |
| 20260906185942 | 70 | 7 | 9.0 | 10.0 | 0.00 | 0.00 | 0.00 | 47 | 1032.3 |
| 20260906185442 | 70 | 18 | 5.0 | 13.0 | 0.00 | 0.00 | 0.00 | 47 | 1032.3 |
| 20260906184940 | 72 | 209 | 1.0 | 6.0 | 0.00 | 0.00 | 0.00 | 45 | 1032.1 |
| 20260906184436 | 72 | 325 | 5.0 | 9.0 | 0.00 | 0.00 | 0.00 | 44 | 1032.3 |
| 20260906183931 | 71 | 306 | 4.0 | 9.0 | 0.00 | 0.00 | 0.00 | 45 | 1032.4 |
| 20260906183427 | 71 | 33 | 3.0 | 10.0 | 0.00 | 0.00 | 0.00 | 46 | 1032.7 |
| 20260906182922 | 72 | 21 | 7.0 | 14.0 | 0.00 | 0.00 | 0.00 | 46 | 1032.7 |
| 20260906182418 | 71 | 306 | 2.0 | 9.0 | 0.00 | 0.00 | 0.00 | 46 | 1032.5 |
| 20260906181914 | 73 | 324 | 9.0 | 11.0 | 0.00 | 0.00 | 0.00 | 44 | 1032.7 |
| 20260906181409 | 72 | 336 | 3.0 | 10.0 | 0.00 | 0.00 | 0.00 | 44 | 1032.9 |
| 20260906180905 | 71 | 349 | 4.0 | 9.0 | 0.00 | 0.00 | 0.00 | 46 | 1032.7 |
| 20260906180400 | 71 | 93 | 4.0 | 10.0 | 0.00 | 0.00 | 0.00 | 46 | 1032.7 |
| 20260906175857 | 71 | 333 | 2.0 | 9.0 | 0.00 | 0.00 | 0.00 | 46 | 1032.7 |
| 20260906175352 | 70 | 211 | 3.0 | 7.0 | 0.00 | 0.00 | 0.00 | 46 | 1033.1 |
| 20260906174851 | 70 | 43 | 3.0 | 10.0 | 0.00 | 0.00 | 0.00 | 47 | 1033.1 |
| 20260906174351 | 70 | 109 | 3.0 | 6.0 | 0.00 | 0.00 | 0.00 | 46 | 1033.3 |
| 20260906173846 | 69 | 282 | 1.0 | 4.0 | 0.00 | 0.00 | 0.00 | 47 | 1033.5 |
| 20260906173342 | 72 | 6 | 2.0 | 4.0 | 0.00 | 0.00 | 0.00 | 46 | 1033.3 |
| 20260906172840 | 71 | 314 | 1.0 | 3.0 | 0.00 | 0.00 | 0.00 | 46 | 1033.5 |
| 20260906172337 | 71 | 117 | 3.0 | 8.0 | 0.00 | 0.00 | 0.00 | 46 | 1033.5 |
| 20260906171832 | 71 | 180 | 7.0 | 9.0 | 0.00 | 0.00 | 0.00 | 45 | 1033.6 |
| 20260906171332 | 70 | 284 | 2.0 | 6.0 | 0.00 | 0.00 | 0.00 | 46 | 1033.5 |
| 20260906170827 | 69 | 341 | 5.0 | 8.0 | 0.00 | 0.00 | 0.00 | 47 | 1033.9 |
| 20260906170323 | 71 | 147 | 6.0 | 8.0 | 0.00 | 0.00 | 0.00 | 47 | 1033.5 |
| 20260906165820 | 71 | 80 | 3.0 | 4.0 | 0.00 | 0.00 | 0.00 | 45 | 1033.6 |
| 20260906165313 | 70 | 212 | 2.0 | 7.0 | 0.00 | 0.00 | 0.00 | 46 | 1033.9 |
| 20260906164808 | 70 | 55 | 4.0 | 6.0 | 0.00 | 0.00 | 0.00 | 46 | 1033.7 |
| 20260906164308 | 69 | 300 | 1.0 | 4.0 | 0.00 | 0.00 | 0.00 | 48 | 1033.9 |
| 20260906163803 | 70 | 117 | 4.0 | 7.0 | 0.00 | 0.00 | 0.00 | 46 | 1033.7 |
| 20260906163255 | 70 | 269 | 2.0 | 7.0 | 0.00 | 0.00 | 0.00 | 47 | 1033.7 |
| 20260906162751 | 70 | 85 | 2.0 | 4.0 | 0.00 | 0.00 | 0.00 | 47 | 1034.0 |
| 20260906162245 | 69 | 276 | 0.0 | 4.0 | 0.00 | 0.00 | 0.00 | 48 | 1033.9 |
| 20260906161740 | 69 | 55 | 2.0 | 3.0 | 0.00 | 0.00 | 0.00 | 47 | 1033.7 |
| 20260906161239 | 70 | 348 | 1.0 | 2.0 | 0.00 | 0.00 | 0.00 | 46 | 1033.9 |
| 20260906160738 | 68 | 60 | 1.0 | 9.0 | 0.00 | 0.00 | 0.00 | 50 | 1033.6 |
| 20260906160238 | 68 | 4 | 1.0 | 4.0 | 0.00 | 0.00 | 0.00 | 49 | 1033.6 |
| 20260906155735 | 68 | 5 | 4.0 | 6.0 | 0.00 | 0.00 | 0.00 | 50 | 1033.7 |
| 20260906155230 | 68 | 35 | 2.0 | 3.0 | 0.00 | 0.00 | 0.00 | 49 | 1033.9 |
| 20260906154726 | 68 | 198 | 2.0 | 6.0 | 0.00 | 0.00 | 0.00 | 50 | 1033.5 |
| 20260906154221 | 68 | 322 | 3.0 | 4.0 | 0.00 | 0.00 | 0.00 | 49 | 1033.6 |
| 20260906153719 | 68 | 175 | 4.0 | 4.0 | 0.00 | 0.00 | 0.00 | 49 | 1033.6 |
| 20260906153213 | 68 | 303 | 1.0 | 1.0 | 0.00 | 0.00 | 0.00 | 48 | 1033.7 |
| 20260906152709 | 67 | 181 | 1.0 | 2.0 | 0.00 | 0.00 | 0.00 | 49 | 1033.7 |
| 20260906152203 | 67 | 269 | 2.0 | 2.0 | 0.00 | 0.00 | 0.00 | 49 | 1033.6 |
| 20260906151658 | 67 | 334 | 3.0 | 3.0 | 0.00 | 0.00 | 0.00 | 49 | 1033.7 |
| 20260906151153 | 67 | 311 | 2.0 | 3.0 | 0.00 | 0.00 | 0.00 | 49 | 1033.3 |
| 20260906150648 | 67 | 268 | 2.0 | 3.0 | 0.00 | 0.00 | 0.00 | 48 | 1033.5 |
| 20260906150143 | 66 | 270 | 0.0 | 3.0 | 0.00 | 0.00 | 0.00 | 49 | 1033.6 |
| 20260906145637 | 67 | 319 | 2.0 | 4.0 | 0.00 | 0.00 | 0.00 | 47 | 1033.9 |
| 20260906145131 | 67 | 267 | 1.0 | 2.0 | 0.00 | 0.00 | 0.00 | 48 | 1033.7 |
| 20260906144626 | 66 | 270 | 1.0 | 2.0 | 0.00 | 0.00 | 0.00 | 48 | 1033.5 |
| 20260906144121 | 66 | 284 | 0.0 | 1.0 | 0.00 | 0.00 | 0.00 | 47 | 1033.6 |
| 20260906143620 | 66 | 263 | 1.0 | 2.0 | 0.00 | 0.00 | 0.00 | 48 | 1033.6 |
| 20260906143118 | 66 | 264 | 0.0 | 0.0 | 0.00 | 0.00 | 0.00 | 47 | 1033.6 |
| 20260906142617 | 64 | 267 | 0.0 | 2.0 | 0.00 | 0.00 | 0.00 | 48 | 1033.5 |
| 20260906142112 | 65 | 277 | 0.0 | 1.0 | 0.00 | 0.00 | 0.00 | 47 | 1034.0 |
| 20260906141611 | 67 | 270 | 0.0 | 0.0 | 0.00 | 0.00 | 0.00 | 47 | 1033.5 |
| 20260906141107 | 66 | 262 | 0.0 | 0.0 | 0.00 | 0.00 | 0.00 | 48 | 1033.5 |
| 20260906140605 | 65 | 282 | 0.0 | 0.0 | 0.00 | 0.00 | 0.00 | 49 | 1033.5 |
| 20260906140101 | 64 | 299 | 1.0 | 2.0 | 0.00 | 0.00 | 0.00 | 50 | 1033.3 |
| 20260906135557 | 62 | 242 | 1.0 | 1.0 | 0.00 | 0.00 | 0.00 | 59 | 1033.3 |
| 20260906135053 | 61 | 250 | 0.0 | 1.0 | 0.00 | 0.00 | 0.00 | 61 | 1033.6 |
| 20260906134549 | 61 | 250 | 1.0 | 1.0 | 0.00 | 0.00 | 0.00 | 61 | 1033.2 |
| 20260906134044 | 60 | 246 | 0.0 | 2.0 | 0.00 | 0.00 | 0.00 | 58 | 1033.3 |
| 20260906133539 | 59 | 222 | 2.0 | 2.0 | 0.00 | 0.00 | 0.00 | 60 | 1033.2 |
| 20260906133035 | 58 | 236 | 1.0 | 2.0 | 0.00 | 0.00 | 0.00 | 61 | 1033.3 |
| 20260906132529 | 57 | 220 | 2.0 | 2.0 | 0.00 | 0.00 | 0.00 | 62 | 1033.5 |
| 20260906132025 | 57 | 223 | 2.0 | 2.0 | 0.00 | 0.00 | 0.00 | 63 | 1033.2 |
| 20260906131520 | 56 | 223 | 2.0 | 2.0 | 0.00 | 0.00 | 0.00 | 63 | 1033.1 |
| 20260906131016 | 56 | 213 | 2.0 | 3.0 | 0.00 | 0.00 | 0.00 | 63 | 1032.9 |
| 20260906130515 | 55 | 215 | 2.0 | 3.0 | 0.00 | 0.00 | 0.00 | 63 | 1033.1 |
| 20260906130010 | 55 | 207 | 3.0 | 3.0 | 0.00 | 0.00 | 0.00 | 64 | 1033.1 |
| 20260906125508 | 54 | 208 | 3.0 | 3.0 | 0.00 | 0.00 | 0.00 | 65 | 1032.9 |
| 20260906125007 | 54 | 205 | 3.0 | 3.0 | 0.00 | 0.00 | 0.00 | 65 | 1033.1 |
| 20260906124503 | 54 | 200 | 3.0 | 3.0 | 0.00 | 0.00 | 0.00 | 63 | 1032.9 |
| 20260906123957 | 54 | 210 | 3.0 | 3.0 | 0.00 | 0.00 | 0.00 | 65 | 1032.9 |
| 20260906123451 | 54 | 205 | 3.0 | 3.0 | 0.00 | 0.00 | 0.00 | 63 | 1032.8 |
| 20260906122950 | 54 | 209 | 3.0 | 3.0 | 0.00 | 0.00 | 0.00 | 64 | 1032.8 |
| 20260906122445 | 54 | 208 | 3.0 | 3.0 | 0.00 | 0.00 | 0.00 | 64 | 1032.8 |
| 20260906121942 | 54 | 208 | 3.0 | 3.0 | 0.00 | 0.00 | 0.00 | 64 | 1032.9 |
| 20260906121437 | 55 | 205 | 3.0 | 3.0 | 0.00 | 0.00 | 0.00 | 63 | 1032.8 |
| 20260906120934 | 55 | 209 | 3.0 | 3.0 | 0.00 | 0.00 | 0.00 | 62 | 1032.8 |
| 20260906120429 | 55 | 206 | 3.0 | 3.0 | 0.00 | 0.00 | 0.00 | 63 | 1032.9 |
| 20260906115925 | 55 | 210 | 3.0 | 3.0 | 0.00 | 0.00 | 0.00 | 63 | 1032.8 |
| 20260906115420 | 55 | 207 | 3.0 | 3.0 | 0.00 | 0.00 | 0.00 | 62 | 1032.9 |
| 20260906114915 | 55 | 209 | 3.0 | 3.0 | 0.00 | 0.00 | 0.00 | 62 | 1032.8 |
| 20260906114410 | 55 | 208 | 3.0 | 4.0 | 0.00 | 0.00 | 0.00 | 62 | 1032.9 |
| 20260906113905 | 55 | 204 | 3.0 | 3.0 | 0.00 | 0.00 | 0.00 | 63 | 1032.9 |
| 20260906113403 | 55 | 212 | 2.0 | 3.0 | 0.00 | 0.00 | 0.00 | 64 | 1032.9 |
| 20260906112859 | 55 | 206 | 3.0 | 3.0 | 0.00 | 0.00 | 0.00 | 64 | 1033.1 |
| 20260906112355 | 55 | 204 | 3.0 | 3.0 | 0.00 | 0.00 | 0.00 | 65 | 1032.7 |
| 20260906111850 | 55 | 206 | 3.0 | 3.0 | 0.00 | 0.00 | 0.00 | 64 | 1032.8 |
| 20260906111349 | 55 | 208 | 3.0 | 3.0 | 0.00 | 0.00 | 0.00 | 64 | 1032.7 |
| 20260906110844 | 54 | 202 | 3.0 | 3.0 | 0.00 | 0.00 | 0.00 | 64 | 1032.7 |
| 20260906110340 | 54 | 202 | 3.0 | 3.0 | 0.00 | 0.00 | 0.00 | 64 | 1032.5 |
| 20260906105838 | 54 | 203 | 3.0 | 3.0 | 0.00 | 0.00 | 0.00 | 64 | 1032.5 |
| 20260906105335 | 54 | 203 | 3.0 | 3.0 | 0.00 | 0.00 | 0.00 | 65 | 1032.8 |
| 20260906104831 | 54 | 204 | 3.0 | 3.0 | 0.00 | 0.00 | 0.00 | 64 | 1032.7 |
| 20260906104329 | 55 | 204 | 3.0 | 3.0 | 0.00 | 0.00 | 0.00 | 63 | 1032.7 |
| 20260906103828 | 54 | 204 | 3.0 | 3.0 | 0.00 | 0.00 | 0.00 | 64 | 1032.5 |
| 20260906103326 | 54 | 203 | 3.0 | 3.0 | 0.00 | 0.00 | 0.00 | 65 | 1032.7 |
| 20260906102822 | 54 | 199 | 3.0 | 3.0 | 0.00 | 0.00 | 0.00 | 64 | 1032.8 |
| 20260906102321 | 54 | 204 | 3.0 | 3.0 | 0.00 | 0.00 | 0.00 | 66 | 1032.7 |
| 20260906101817 | 54 | 205 | 3.0 | 3.0 | 0.00 | 0.00 | 0.00 | 65 | 1032.7 |
| 20260906101312 | 54 | 204 | 3.0 | 3.0 | 0.00 | 0.00 | 0.00 | 66 | 1032.9 |
| 20260906100808 | 55 | 201 | 3.0 | 3.0 | 0.00 | 0.00 | 0.00 | 65 | 1032.8 |
| 20260906100306 | 55 | 205 | 3.0 | 3.0 | 0.00 | 0.00 | 0.00 | 64 | 1032.8 |
| 20260906095802 | 55 | 207 | 3.0 | 3.0 | 0.00 | 0.00 | 0.00 | 64 | 1032.8 |
| 20260906095257 | 55 | 211 | 3.0 | 3.0 | 0.00 | 0.00 | 0.00 | 65 | 1032.8 |
| 20260906094750 | 55 | 206 | 3.0 | 3.0 | 0.00 | 0.00 | 0.00 | 64 | 1032.8 |
| 20260906094245 | 55 | 201 | 3.0 | 3.0 | 0.00 | 0.00 | 0.00 | 64 | 1032.8 |
| 20260906093741 | 55 | 204 | 3.0 | 3.0 | 0.00 | 0.00 | 0.00 | 64 | 1032.9 |
| 20260906093237 | 55 | 202 | 3.0 | 3.0 | 0.00 | 0.00 | 0.00 | 65 | 1032.9 |
| 20260906092732 | 55 | 205 | 3.0 | 3.0 | 0.00 | 0.00 | 0.00 | 64 | 1033.1 |
| 20260906092226 | 55 | 201 | 3.0 | 3.0 | 0.00 | 0.00 | 0.00 | 65 | 1032.8 |
| 20260906091722 | 55 | 203 | 3.0 | 3.0 | 0.00 | 0.00 | 0.00 | 65 | 1033.1 |
| 20260906091213 | 55 | 208 | 3.0 | 3.0 | 0.00 | 0.00 | 0.00 | 64 | 1033.2 |
| 20260906090709 | 55 | 207 | 3.0 | 3.0 | 0.00 | 0.00 | 0.00 | 64 | 1032.9 |
| 20260906090208 | 56 | 203 | 3.0 | 4.0 | 0.00 | 0.00 | 0.00 | 64 | 1033.1 |
| 20260906085707 | 55 | 207 | 4.0 | 4.0 | 0.00 | 0.00 | 0.00 | 64 | 1032.9 |
| 20260906085206 | 55 | 202 | 4.0 | 4.0 | 0.00 | 0.00 | 0.00 | 64 | 1032.7 |
| 20260906084701 | 56 | 197 | 3.0 | 4.0 | 0.00 | 0.00 | 0.00 | 65 | 1032.9 |
| 20260906084200 | 56 | 199 | 3.0 | 4.0 | 0.00 | 0.00 | 0.00 | 62 | 1032.7 |
| 20260906083655 | 56 | 206 | 4.0 | 4.0 | 0.00 | 0.00 | 0.00 | 61 | 1032.9 |
| 20260906083151 | 57 | 201 | 4.0 | 6.0 | 0.00 | 0.00 | 0.00 | 59 | 1032.8 |
| 20260906082646 | 57 | 201 | 3.0 | 4.0 | 0.00 | 0.00 | 0.00 | 58 | 1032.9 |
| 20260906082141 | 58 | 206 | 4.0 | 4.0 | 0.00 | 0.00 | 0.00 | 58 | 1032.9 |
| 20260906081637 | 57 | 204 | 4.0 | 4.0 | 0.00 | 0.00 | 0.00 | 60 | 1032.9 |
| 20260906081132 | 57 | 221 | 4.0 | 4.0 | 0.00 | 0.00 | 0.00 | 60 | 1032.9 |
| 20260906080629 | 57 | 234 | 4.0 | 4.0 | 0.00 | 0.00 | 0.00 | 63 | 1033.1 |
| 20260906080124 | 58 | 209 | 3.0 | 4.0 | 0.00 | 0.00 | 0.00 | 60 | 1033.1 |
| 20260906075618 | 57 | 198 | 4.0 | 4.0 | 0.00 | 0.00 | 0.00 | 60 | 1033.3 |
| 20260906075113 | 57 | 211 | 4.0 | 6.0 | 0.00 | 0.00 | 0.00 | 61 | 1033.2 |
| 20260906074609 | 57 | 201 | 4.0 | 4.0 | 0.00 | 0.00 | 0.00 | 59 | 1033.2 |
| 20260906074108 | 57 | 218 | 4.0 | 4.0 | 0.00 | 0.00 | 0.00 | 62 | 1033.1 |
| 20260906073608 | 56 | 209 | 3.0 | 4.0 | 0.00 | 0.00 | 0.00 | 64 | 1033.1 |
| 20260906073104 | 56 | 214 | 2.0 | 3.0 | 0.00 | 0.00 | 0.00 | 63 | 1033.1 |
| 20260906072558 | 57 | 218 | 2.0 | 3.0 | 0.00 | 0.00 | 0.00 | 61 | 1033.3 |
| 20260906072054 | 57 | 206 | 4.0 | 4.0 | 0.00 | 0.00 | 0.00 | 60 | 1033.2 |
| 20260906071550 | 57 | 211 | 3.0 | 4.0 | 0.00 | 0.00 | 0.00 | 61 | 1033.2 |
| 20260906071040 | 58 | 218 | 3.0 | 4.0 | 0.00 | 0.00 | 0.00 | 60 | 1033.2 |
| 20260906070536 | 57 | 213 | 3.0 | 4.0 | 0.00 | 0.00 | 0.00 | 64 | 1033.2 |
| 20260906070032 | 57 | 205 | 3.0 | 4.0 | 0.00 | 0.00 | 0.00 | 65 | 1033.1 |
| 20260906065531 | 56 | 205 | 4.0 | 4.0 | 0.00 | 0.00 | 0.00 | 66 | 1033.2 |
| 20260906065027 | 57 | 207 | 3.0 | 3.0 | 0.00 | 0.00 | 0.00 | 66 | 1033.1 |
| 20260906064522 | 57 | 212 | 3.0 | 3.0 | 0.00 | 0.00 | 0.00 | 64 | 1033.1 |
| 20260906064017 | 56 | 201 | 3.0 | 3.0 | 0.00 | 0.00 | 0.00 | 67 | 1033.5 |
| 20260906063513 | 55 | 207 | 3.0 | 3.0 | 0.00 | 0.00 | 0.00 | 69 | 1033.6 |
| 20260906063008 | 55 | 210 | 4.0 | 4.0 | 0.00 | 0.00 | 0.00 | 70 | 1033.2 |
| 20260906062503 | 54 | 200 | 3.0 | 4.0 | 0.00 | 0.00 | 0.00 | 70 | 1033.7 |
| 20260906061957 | 53 | 209 | 3.0 | 4.0 | 0.00 | 0.00 | 0.00 | 75 | 1033.5 |
| 20260906061454 | 53 | 202 | 3.0 | 4.0 | 0.00 | 0.00 | 0.00 | 78 | 1033.3 |
| 20260906060953 | 52 | 207 | 4.0 | 4.0 | 0.00 | 0.00 | 0.00 | 79 | 1033.7 |
| 20260906060450 | 52 | 214 | 3.0 | 3.0 | 0.00 | 0.00 | 0.00 | 82 | 1033.7 |
| 20260906055946 | 51 | 212 | 3.0 | 3.0 | 0.00 | 0.02 | 0.02 | 82 | 1033.7 |
| 20260906055442 | 51 | 209 | 3.0 | 3.0 | 0.00 | 0.02 | 0.02 | 84 | 1033.5 |
| 20260906054937 | 51 | 203 | 3.0 | 3.0 | 0.00 | 0.02 | 0.02 | 84 | 1033.7 |
| 20260906054432 | 51 | 204 | 3.0 | 3.0 | 0.00 | 0.02 | 0.02 | 85 | 1033.7 |
| 20260906053928 | 51 | 206 | 3.0 | 3.0 | 0.00 | 0.02 | 0.02 | 86 | 1033.9 |
| 20260906053424 | 51 | 216 | 2.0 | 3.0 | 0.00 | 0.02 | 0.02 | 87 | 1034.1 |
| 20260906052919 | 52 | 220 | 2.0 | 2.0 | 0.00 | 0.02 | 0.02 | 88 | 1034.1 |
| 20260906052415 | 51 | 209 | 3.0 | 3.0 | 0.00 | 0.02 | 0.02 | 88 | 1034.0 |
| 20260906051912 | 52 | 203 | 3.0 | 3.0 | 0.00 | 0.02 | 0.02 | 89 | 1033.9 |
| 20260906051412 | 52 | 213 | 3.0 | 4.0 | 0.00 | 0.02 | 0.02 | 90 | 1034.4 |
| 20260906050908 | 53 | 215 | 2.0 | 3.0 | 0.00 | 0.02 | 0.02 | 91 | 1034.1 |
| 20260906050403 | 53 | 217 | 2.0 | 3.0 | 0.00 | 0.02 | 0.02 | 92 | 1034.1 |
| 20260906045902 | 53 | 233 | 2.0 | 3.0 | 0.00 | 0.02 | 0.02 | 93 | 1033.9 |
| 20260906045400 | 53 | 238 | 1.0 | 2.0 | 0.00 | 0.02 | 0.02 | 92 | 1034.4 |
| 20260906044857 | 53 | 218 | 3.0 | 3.0 | 0.00 | 0.02 | 0.02 | 89 | 1034.1 |
| 20260906044357 | 55 | 222 | 2.0 | 3.0 | 0.05 | 0.02 | 0.02 | 86 | 1034.3 |
| 20260906043853 | 56 | 251 | 3.0 | 7.0 | 0.05 | 0.02 | 0.02 | 79 | 1034.3 |
| 20260906043349 | 59 | 193 | 4.0 | 8.0 | 0.00 | 0.01 | 0.01 | 69 | 1034.4 |
| 20260906042844 | 58 | 234 | 5.0 | 9.0 | 0.00 | 0.01 | 0.01 | 66 | 1034.3 |
| 20260906042342 | 57 | 169 | 4.0 | 11.0 | 0.00 | 0.01 | 0.01 | 67 | 1034.3 |
| 20260906041838 | 56 | 187 | 8.0 | 13.0 | 0.07 | 0.01 | 0.01 | 73 | 1034.0 |
| 20260906041334 | 56 | 235 | 6.0 | 8.0 | 0.07 | 0.01 | 0.01 | 77 | 1034.4 |
| 20260906040834 | 60 | 205 | 9.0 | 10.0 | 0.00 | 0.00 | 0.00 | 71 | 1033.9 |
| 20260906040329 | 62 | 211 | 5.0 | 10.0 | 0.00 | 0.00 | 0.00 | 54 | 1034.1 |
| 20260906035824 | 62 | 220 | 2.0 | 8.0 | 0.00 | 0.00 | 0.00 | 54 | 1033.7 |
| 20260906035319 | 63 | 248 | 4.0 | 9.0 | 0.00 | 0.00 | 0.00 | 52 | 1033.6 |
| 20260906034815 | 63 | 218 | 4.0 | 9.0 | 0.00 | 0.00 | 0.00 | 49 | 1033.6 |
| 20260906034314 | 64 | 262 | 6.0 | 9.0 | 0.00 | 0.00 | 0.00 | 49 | 1033.7 |
| 20260906033811 | 64 | 228 | 3.0 | 6.0 | 0.00 | 0.00 | 0.00 | 47 | 1033.3 |
| 20260906033309 | 63 | 251 | 0.0 | 0.0 | 0.00 | 0.00 | 0.00 | 48 | 1033.6 |
| 20260906032806 | 63 | 248 | 0.0 | 0.0 | 0.00 | 0.00 | 0.00 | 48 | 1033.7 |
| 20260906032305 | 63 | 218 | 2.0 | 3.0 | 0.00 | 0.00 | 0.00 | 48 | 1033.5 |
| 20260906031757 | 62 | 223 | 2.0 | 2.0 | 0.00 | 0.00 | 0.00 | 50 | 1033.6 |
| 20260906031253 | 62 | 216 | 3.0 | 3.0 | 0.00 | 0.00 | 0.00 | 50 | 1033.5 |
| 20260906030752 | 60 | 219 | 2.0 | 2.0 | 0.00 | 0.00 | 0.00 | 59 | 1033.3 |
| 20260906030248 | 61 | 236 | 1.0 | 2.0 | 0.00 | 0.00 | 0.00 | 55 | 1033.2 |
| 20260906025747 | 64 | 238 | 1.0 | 3.0 | 0.00 | 0.00 | 0.00 | 54 | 1032.9 |
| 20260906025241 | 63 | 218 | 3.0 | 4.0 | 0.00 | 0.00 | 0.00 | 47 | 1033.2 |
| 20260906024740 | 63 | 237 | 2.0 | 3.0 | 0.00 | 0.00 | 0.00 | 49 | 1033.2 |
| 20260906024239 | 63 | 234 | 4.0 | 4.0 | 0.00 | 0.00 | 0.00 | 49 | 1033.1 |
| 20260906023735 | 62 | 212 | 4.0 | 4.0 | 0.00 | 0.00 | 0.00 | 49 | 1033.1 |
| 20260906023230 | 62 | 218 | 2.0 | 2.0 | 0.00 | 0.00 | 0.00 | 51 | 1032.9 |
| 20260906022726 | 60 | 194 | 3.0 | 3.0 | 0.00 | 0.00 | 0.00 | 52 | 1032.8 |
| 20260906022216 | 61 | 248 | 1.0 | 1.0 | 0.00 | 0.00 | 0.00 | 52 | 1032.8 |
| 20260906021711 | 61 | 245 | 1.0 | 2.0 | 0.00 | 0.00 | 0.00 | 51 | 1032.5 |
| 20260906021209 | 62 | 236 | 1.0 | 2.0 | 0.00 | 0.00 | 0.00 | 51 | 1032.4 |
| 20260906020705 | 62 | 235 | 2.0 | 2.0 | 0.00 | 0.00 | 0.00 | 49 | 1032.7 |
| 20260906020159 | 64 | 267 | 0.0 | 1.0 | 0.00 | 0.00 | 0.00 | 46 | 1032.7 |
| 20260906015653 | 64 | 248 | 0.0 | 0.0 | 0.00 | 0.00 | 0.00 | 46 | 1032.8 |
| 20260906015152 | 64 | 280 | 1.0 | 2.0 | 0.00 | 0.00 | 0.00 | 47 | 1032.7 |
| 20260906014646 | 64 | 238 | 1.0 | 2.0 | 0.00 | 0.00 | 0.00 | 48 | 1032.8 |
| 20260906014142 | 64 | 272 | 1.0 | 2.0 | 0.00 | 0.00 | 0.00 | 46 | 1032.8 |
| 20260906013639 | 65 | 246 | 2.0 | 2.0 | 0.00 | 0.00 | 0.00 | 46 | 1032.7 |
| 20260906013134 | 65 | 263 | 1.0 | 3.0 | 0.00 | 0.00 | 0.00 | 46 | 1032.5 |
| 20260906012634 | 66 | 298 | 2.0 | 7.0 | 0.00 | 0.00 | 0.00 | 45 | 1032.5 |
| 20260906012128 | 66 | 303 | 1.0 | 3.0 | 0.00 | 0.00 | 0.00 | 45 | 1032.7 |
| 20260906011624 | 66 | 263 | 2.0 | 3.0 | 0.00 | 0.00 | 0.00 | 44 | 1032.9 |
| 20260906011119 | 66 | 317 | 3.0 | 8.0 | 0.00 | 0.00 | 0.00 | 43 | 1032.9 |
| 20260906010614 | 66 | 290 | 3.0 | 3.0 | 0.00 | 0.00 | 0.00 | 43 | 1032.5 |
| 20260906010110 | 67 | 279 | 3.0 | 6.0 | 0.00 | 0.00 | 0.00 | 42 | 1032.8 |
| 20260906005609 | 68 | 254 | 1.0 | 6.0 | 0.00 | 0.00 | 0.00 | 42 | 1032.7 |
| 20260906005108 | 68 | 288 | 1.0 | 2.0 | 0.00 | 0.00 | 0.00 | 41 | 1032.5 |
| 20260906004603 | 68 | 265 | 0.0 | 2.0 | 0.00 | 0.00 | 0.00 | 40 | 1032.4 |
| 20260906004057 | 69 | 354 | 1.0 | 4.0 | 0.00 | 0.00 | 0.00 | 41 | 1032.7 |
| 20260906003553 | 69 | 256 | 2.0 | 3.0 | 0.00 | 0.00 | 0.00 | 39 | 1032.7 |
| 20260906003048 | 69 | 290 | 1.0 | 3.0 | 0.00 | 0.00 | 0.00 | 39 | 1032.5 |
| 20260906002543 | 69 | 277 | 1.0 | 2.0 | 0.00 | 0.00 | 0.00 | 39 | 1032.4 |
| 20260906002037 | 69 | 265 | 0.0 | 0.0 | 0.00 | 0.00 | 0.00 | 39 | 1032.5 |
| 20260906001533 | 69 | 259 | 1.0 | 2.0 | 0.00 | 0.00 | 0.00 | 38 | 1032.7 |
| 20260906001027 | 69 | 250 | 0.0 | 2.0 | 0.00 | 0.00 | 0.00 | 39 | 1032.5 |
| 20260906000523 | 70 | 247 | 0.0 | 0.0 | 0.00 | 0.00 | 0.00 | 40 | 1032.4 |
| 20260906000018 | 69 | 265 | 0.0 | 2.0 | 0.00 | 0.00 | 0.00 | 39 | 1032.7 |
| 20260905235511 | 70 | 218 | 0.0 | 1.0 | 0.00 | 0.00 | 0.00 | 38 | 1032.4 |
| 20260905235006 | 70 | 328 | 4.0 | 6.0 | 0.00 | 0.00 | 0.00 | 38 | 1032.5 |
| 20260905234502 | 71 | 327 | 3.0 | 3.0 | 0.00 | 0.00 | 0.00 | 37 | 1032.5 |